TVP7111 HEGN-EPKT

Flight info

Callsign TVP7111
Flight time N/A
Altitude 29000
Route BOTIX V608 NABED/N0440F300 T55 GINDI W8 CVO A16 RASDA M855 PEDER/N0438F320 M855 TOMBI UA16 AYT UQ23 OSVEL UL619 MAKOL L619 ARGES DCT KARIL DCT KENIN DCT LENOV
Aircraft B738/M-SDE3FGHIJ1RWXYZ/LB1

Departure

Time 2026-05-07 20:35
Airport Hurghada International Airport (HEGN)

Arrival

Time N/A
Airport Katowice Wojciech Korfanty International Airport (EPKT)
Time Latitude Longitude Altitude Speed Heading
2026-05-07 19:25 27.17775 33.80664 57 ft 0 kts 75°
2026-05-07 20:23 27.17774 33.80661 57 ft 3 kts 75°
2026-05-07 20:23 27.17768 33.80634 56 ft 3 kts 75°
2026-05-07 20:23 27.17762 33.80608 49 ft 3 kts 75°
2026-05-07 20:24 27.17756 33.80584 50 ft 3 kts 77°
2026-05-07 20:24 27.17756 33.80561 49 ft 3 kts 122°
2026-05-07 20:24 27.17772 33.80547 52 ft 3 kts 163°
2026-05-07 20:24 27.17784 33.80543 49 ft 1 kts 165°
2026-05-07 20:25 27.17785 33.80543 49 ft 0 kts 165°
2026-05-07 20:27 27.17782 33.80544 49 ft 1 kts 165°
2026-05-07 20:28 27.17761 33.80550 56 ft 5 kts 165°
2026-05-07 20:28 27.17715 33.80564 54 ft 8 kts 165°
2026-05-07 20:28 27.17660 33.80580 51 ft 8 kts 165°
2026-05-07 20:28 27.17607 33.80596 54 ft 8 kts 165°
2026-05-07 20:29 27.17551 33.80613 54 ft 8 kts 165°
2026-05-07 20:29 27.17497 33.80600 54 ft 9 kts 225°
2026-05-07 20:29 27.17473 33.80526 52 ft 12 kts 255°
2026-05-07 20:29 27.17447 33.80416 52 ft 19 kts 255°
2026-05-07 20:30 27.17412 33.80267 48 ft 20 kts 254°
2026-05-07 20:30 27.17377 33.80121 54 ft 19 kts 255°
2026-05-07 20:30 27.17343 33.79981 49 ft 20 kts 255°
2026-05-07 20:30 27.17305 33.79820 68 ft 21 kts 255°
2026-05-07 20:31 27.17268 33.79666 90 ft 20 kts 255°
2026-05-07 20:31 27.17232 33.79528 101 ft 18 kts 239°
2026-05-07 20:31 27.17120 33.79524 103 ft 17 kts 165°
2026-05-07 20:31 27.17006 33.79557 105 ft 16 kts 165°
2026-05-07 20:32 27.16897 33.79589 105 ft 16 kts 165°
2026-05-07 20:32 27.16793 33.79620 104 ft 15 kts 165°
2026-05-07 20:32 27.16692 33.79649 106 ft 15 kts 165°
2026-05-07 20:32 27.16594 33.79679 108 ft 16 kts 165°
2026-05-07 20:33 27.16476 33.79713 109 ft 20 kts 165°
2026-05-07 20:33 27.16334 33.79756 111 ft 22 kts 165°
2026-05-07 20:33 27.16191 33.79798 114 ft 21 kts 165°
2026-05-07 20:33 27.16053 33.79839 114 ft 20 kts 165°
2026-05-07 20:34 27.15940 33.79832 119 ft 14 kts 236°
2026-05-07 20:34 27.15912 33.79737 119 ft 12 kts 253°
2026-05-07 20:34 27.15940 33.79676 117 ft 4 kts 345°
2026-05-07 20:34 27.15944 33.79674 117 ft 2 kts 345°
2026-05-07 20:35 27.16091 33.79631 116 ft 55 kts 345°
2026-05-07 20:35 27.16695 33.79452 111 ft 122 kts 345°
2026-05-07 20:35 27.17701 33.79145 124 ft 174 kts 346°
2026-05-07 20:35 27.18913 33.78803 799 ft 180 kts 344°
2026-05-07 20:36 27.20115 33.78478 1743 ft 178 kts 342°
2026-05-07 20:36 27.21326 33.78151 2536 ft 182 kts 345°
2026-05-07 20:36 27.22613 33.77802 2770 ft 202 kts 345°
2026-05-07 20:36 27.24054 33.77414 2978 ft 222 kts 346°
2026-05-07 20:37 27.25632 33.76993 3268 ft 242 kts 346°
2026-05-07 20:37 27.27313 33.76543 3758 ft 253 kts 346°
2026-05-07 20:37 27.29037 33.76081 4432 ft 256 kts 347°
2026-05-07 20:37 27.30735 33.75440 5053 ft 263 kts 330°
2026-05-07 20:38 27.32098 33.74023 5597 ft 274 kts 305°
2026-05-07 20:38 27.32774 33.72012 6213 ft 281 kts 277°
2026-05-07 20:38 27.32625 33.69813 6819 ft 286 kts 255°
2026-05-07 20:38 27.32025 33.67681 7520 ft 285 kts 252°
2026-05-07 20:39 27.31385 33.65577 7883 ft 286 kts 252°
2026-05-07 20:39 27.30744 33.63486 7958 ft 285 kts 252°
2026-05-07 20:39 27.30106 33.61382 8002 ft 285 kts 253°
2026-05-07 20:39 27.29467 33.59251 8333 ft 289 kts 253°
2026-05-07 20:40 27.28832 33.57113 9065 ft 288 kts 253°
2026-05-07 20:40 27.28198 33.54973 9767 ft 289 kts 253°
2026-05-07 20:40 27.27559 33.52815 10293 ft 296 kts 253°
2026-05-07 20:40 27.26885 33.50533 10460 ft 316 kts 253°
2026-05-07 20:41 27.26171 33.48121 10611 ft 335 kts 253°
2026-05-07 20:41 27.25417 33.45579 10789 ft 351 kts 253°
2026-05-07 20:41 27.24633 33.42945 11170 ft 358 kts 253°
2026-05-07 20:41 27.23840 33.40284 11769 ft 359 kts 253°
2026-05-07 20:42 27.23054 33.37645 12331 ft 362 kts 253°
2026-05-07 20:42 27.22283 33.34922 12763 ft 369 kts 257°
2026-05-07 20:42 27.21891 33.32072 13169 ft 374 kts 267°
2026-05-07 20:42 27.21943 33.29162 13704 ft 377 kts 275°
2026-05-07 20:43 27.22188 33.26210 14246 ft 379 kts 276°
2026-05-07 20:43 27.22453 33.23249 14755 ft 382 kts 276°
2026-05-07 20:43 27.22721 33.20270 15279 ft 385 kts 276°
2026-05-07 20:43 27.22986 33.17254 15804 ft 388 kts 276°
2026-05-07 20:44 27.23246 33.14220 16346 ft 390 kts 276°
2026-05-07 20:44 27.23501 33.11174 16884 ft 393 kts 276°
2026-05-07 20:44 27.23754 33.08104 17410 ft 396 kts 276°
2026-05-07 20:44 27.24001 33.05080 17893 ft 399 kts 276°
2026-05-07 20:45 27.24252 33.01979 18374 ft 403 kts 276°
2026-05-07 20:45 27.24505 32.98849 18816 ft 405 kts 276°
2026-05-07 20:45 27.24759 32.95691 19272 ft 408 kts 276°
2026-05-07 20:45 27.25013 32.92536 19728 ft 410 kts 276°
2026-05-07 20:46 27.25272 32.89297 20194 ft 412 kts 276°
2026-05-07 20:46 27.25527 32.86109 20648 ft 414 kts 277°
2026-05-07 20:46 27.25785 32.82869 21094 ft 417 kts 277°
2026-05-07 20:46 27.26044 32.79597 21530 ft 419 kts 277°
2026-05-07 20:47 27.26303 32.76332 21965 ft 422 kts 277°
2026-05-07 20:47 27.26563 32.73036 22385 ft 424 kts 277°
2026-05-07 20:47 27.26824 32.69722 22784 ft 427 kts 277°
2026-05-07 20:47 27.27082 32.66431 23189 ft 429 kts 277°
2026-05-07 20:48 27.27344 32.63084 23587 ft 431 kts 277°
2026-05-07 20:48 27.27606 32.59722 23932 ft 433 kts 277°
2026-05-07 20:48 27.27869 32.56335 24293 ft 434 kts 277°
2026-05-07 20:48 27.28131 32.52955 24665 ft 435 kts 278°
2026-05-07 20:49 27.28393 32.49554 25035 ft 435 kts 278°
2026-05-07 20:49 27.28653 32.46173 25528 ft 433 kts 278°
2026-05-07 20:49 27.28910 32.42815 26056 ft 429 kts 278°
2026-05-07 20:49 27.29159 32.39556 26561 ft 427 kts 278°
2026-05-07 20:50 27.29421 32.36185 27041 ft 424 kts 280°
2026-05-07 20:50 27.30144 32.33015 27428 ft 417 kts 297°
2026-05-07 20:50 27.31662 32.30285 27899 ft 409 kts 313°
2026-05-07 20:50 27.33721 32.28108 28421 ft 404 kts 324°
2026-05-07 20:51 27.36091 32.26560 28917 ft 401 kts 338°
2026-05-07 20:51 27.38745 32.25583 29448 ft 398 kts 343°
2026-05-07 20:51 27.41406 32.24751 29981 ft 395 kts 344°
2026-05-07 20:52 27.46772 32.23156 30035 ft 400 kts 344°
2026-05-07 20:52 27.52100 32.21546 30035 ft 394 kts 343°
2026-05-07 20:53 27.57397 32.19905 30047 ft 395 kts 343°
2026-05-07 20:53 27.62702 32.18242 30045 ft 396 kts 343°
2026-05-07 20:54 27.68032 32.16565 30044 ft 398 kts 343°
2026-05-07 20:54 27.73368 32.14884 30047 ft 398 kts 343°
2026-05-07 20:55 27.78670 32.13212 30059 ft 398 kts 343°
2026-05-07 20:55 27.84004 32.11528 30055 ft 398 kts 343°
2026-05-07 20:56 27.89330 32.09845 30054 ft 397 kts 343°
2026-05-07 20:56 27.94644 32.08165 30060 ft 396 kts 343°
2026-05-07 20:57 27.99951 32.06485 30053 ft 395 kts 343°
2026-05-07 20:57 28.04347 32.05091 30056 ft 395 kts 343°
2026-05-07 20:58 28.09642 32.03412 30061 ft 395 kts 343°
2026-05-07 20:58 28.14927 32.01734 30058 ft 395 kts 343°
2026-05-07 20:59 28.20221 32.00051 30060 ft 395 kts 343°
2026-05-07 20:59 28.25513 31.98367 30056 ft 395 kts 343°
2026-05-07 21:00 28.30808 31.96681 30057 ft 395 kts 343°
2026-05-07 21:00 28.36078 31.95000 30059 ft 395 kts 343°
2026-05-07 21:01 28.41378 31.93309 30073 ft 395 kts 343°
2026-05-07 21:01 28.46675 31.91616 30063 ft 395 kts 343°
2026-05-07 21:02 28.51983 31.89918 30067 ft 396 kts 343°
2026-05-07 21:02 28.57257 31.88230 30064 ft 396 kts 343°
2026-05-07 21:03 28.62570 31.86527 30064 ft 396 kts 343°
2026-05-07 21:03 28.67874 31.84826 30063 ft 396 kts 343°
2026-05-07 21:04 28.73183 31.83120 30066 ft 396 kts 343°
2026-05-07 21:04 28.78491 31.81414 30070 ft 396 kts 343°
2026-05-07 21:05 28.83785 31.79710 30072 ft 395 kts 343°
2026-05-07 21:05 28.89066 31.78008 30075 ft 394 kts 343°
2026-05-07 21:06 28.94332 31.76310 30073 ft 393 kts 343°
2026-05-07 21:06 28.99554 31.74624 30080 ft 392 kts 343°
2026-05-07 21:07 29.04795 31.72930 30082 ft 391 kts 343°
2026-05-07 21:07 29.10030 31.71236 30085 ft 390 kts 343°
2026-05-07 21:08 29.15255 31.69543 30091 ft 390 kts 343°
2026-05-07 21:08 29.20442 31.67861 30092 ft 390 kts 343°
2026-05-07 21:09 29.25649 31.66171 30100 ft 390 kts 343°
2026-05-07 21:09 29.30808 31.64495 30104 ft 389 kts 343°
2026-05-07 21:10 29.36074 31.62782 30099 ft 389 kts 343°
2026-05-07 21:10 29.41241 31.61100 30108 ft 388 kts 343°
2026-05-07 21:11 29.46418 31.59412 30115 ft 387 kts 343°
2026-05-07 21:11 29.54180 31.56879 30121 ft 385 kts 343°
2026-05-07 21:12 29.59340 31.55192 30111 ft 385 kts 343°
2026-05-07 21:12 29.64498 31.53504 30119 ft 385 kts 343°
2026-05-07 21:13 29.69645 31.51818 30120 ft 385 kts 343°
2026-05-07 21:13 29.74763 31.50140 30124 ft 384 kts 343°
2026-05-07 21:14 29.79911 31.48451 30126 ft 385 kts 344°
2026-05-07 21:14 29.85054 31.46761 30126 ft 384 kts 343°
2026-05-07 21:15 29.90197 31.45069 30131 ft 384 kts 343°
2026-05-07 21:15 29.95338 31.43375 30131 ft 384 kts 343°
2026-05-07 21:16 30.00480 31.41680 30129 ft 384 kts 343°
2026-05-07 21:16 30.05619 31.39984 30132 ft 384 kts 343°
2026-05-07 21:17 30.10762 31.38463 30126 ft 384 kts 349°
2026-05-07 21:17 30.16044 31.37517 30123 ft 384 kts 350°
2026-05-07 21:18 30.21325 31.36590 30129 ft 383 kts 350°
2026-05-07 21:18 30.26591 31.35645 30131 ft 383 kts 350°
2026-05-07 21:19 30.31857 31.34688 30141 ft 382 kts 350°
2026-05-07 21:19 30.37114 31.33731 30135 ft 382 kts 350°
2026-05-07 21:20 30.42375 31.32771 30137 ft 382 kts 350°
2026-05-07 21:20 30.47632 31.31812 30139 ft 382 kts 350°
2026-05-07 21:21 30.52889 31.30843 30137 ft 382 kts 350°
2026-05-07 21:21 30.58112 31.29878 30137 ft 382 kts 350°
2026-05-07 21:22 30.63366 31.28906 30139 ft 382 kts 350°
2026-05-07 21:22 30.68630 31.27932 30140 ft 383 kts 350°
2026-05-07 21:23 30.73892 31.26957 30143 ft 383 kts 350°
2026-05-07 21:23 30.79158 31.25981 30142 ft 383 kts 350°
2026-05-07 21:24 30.84420 31.25004 30142 ft 383 kts 350°
2026-05-07 21:24 30.89693 31.24023 30140 ft 383 kts 350°
2026-05-07 21:25 30.94960 31.23043 30143 ft 384 kts 350°
2026-05-07 21:25 31.00236 31.22060 30144 ft 384 kts 349°
2026-05-07 21:26 31.05474 31.21083 30147 ft 384 kts 349°
2026-05-07 21:26 31.10753 31.20098 30144 ft 384 kts 349°
2026-05-07 21:27 31.16033 31.19111 30145 ft 384 kts 349°
2026-05-07 21:27 31.21312 31.18123 30147 ft 384 kts 349°
2026-05-07 21:28 31.26588 31.17140 30145 ft 384 kts 349°
2026-05-07 21:28 31.31872 31.16171 30145 ft 384 kts 349°
2026-05-07 21:29 31.37119 31.15209 30149 ft 384 kts 349°
2026-05-07 21:29 31.42395 31.14238 30146 ft 383 kts 349°
2026-05-07 21:30 31.47668 31.13266 30153 ft 383 kts 349°
2026-05-07 21:30 31.52938 31.12300 30151 ft 383 kts 350°
2026-05-07 21:31 31.58249 31.11641 30155 ft 384 kts 353°
2026-05-07 21:31 31.63573 31.11109 30150 ft 384 kts 353°
2026-05-07 21:32 31.68852 31.10562 30151 ft 384 kts 352°
2026-05-07 21:32 31.74181 31.09990 30148 ft 384 kts 352°
2026-05-07 21:33 31.79506 31.09411 30149 ft 384 kts 352°
2026-05-07 21:33 31.84831 31.08830 30150 ft 384 kts 352°
2026-05-07 21:34 31.90161 31.08248 30156 ft 384 kts 352°
2026-05-07 21:34 31.95464 31.07669 30156 ft 385 kts 352°
2026-05-07 21:35 32.00809 31.07084 30156 ft 385 kts 352°
2026-05-07 21:35 32.06139 31.06501 30154 ft 384 kts 352°
2026-05-07 21:36 32.11433 31.05921 30154 ft 384 kts 352°
2026-05-07 21:36 32.16755 31.05338 30153 ft 383 kts 352°
2026-05-07 21:37 32.22069 31.04755 30158 ft 383 kts 352°
2026-05-07 21:37 32.27376 31.04171 30154 ft 383 kts 352°
2026-05-07 21:38 32.32676 31.03588 30159 ft 382 kts 352°
2026-05-07 21:38 32.37979 31.03004 30154 ft 382 kts 352°
2026-05-07 21:39 32.43237 31.02424 30152 ft 382 kts 352°
2026-05-07 21:39 32.48529 31.01840 30148 ft 382 kts 352°
2026-05-07 21:40 32.53821 31.01255 30149 ft 382 kts 352°
2026-05-07 21:40 32.59109 31.00669 30148 ft 382 kts 352°
2026-05-07 21:41 32.64400 31.00083 30152 ft 382 kts 352°
2026-05-07 21:41 32.69691 30.99496 30150 ft 382 kts 352°
2026-05-07 21:42 32.74981 30.98908 30153 ft 382 kts 351°
2026-05-07 21:42 32.80274 30.98320 30145 ft 382 kts 351°
2026-05-07 21:43 32.85536 30.97734 30149 ft 382 kts 351°
2026-05-07 21:43 32.90833 30.97143 30160 ft 382 kts 351°
2026-05-07 21:44 32.96138 30.96551 30161 ft 382 kts 351°
2026-05-07 21:44 33.00542 30.96059 30148 ft 383 kts 351°
2026-05-07 21:45 33.05849 30.95465 30150 ft 383 kts 351°
2026-05-07 21:45 33.11164 30.94909 30150 ft 384 kts 353°
2026-05-07 21:46 33.16515 30.94678 30153 ft 385 kts 354°
2026-05-07 21:46 33.21877 30.94524 30152 ft 385 kts 354°
2026-05-07 21:47 33.27243 30.94349 30149 ft 386 kts 354°
2026-05-07 21:47 33.32582 30.94158 30149 ft 386 kts 354°
2026-05-07 21:48 33.37958 30.93958 30147 ft 387 kts 354°
2026-05-07 21:48 33.43355 30.93756 30150 ft 387 kts 354°
2026-05-07 21:49 33.48753 30.93554 30147 ft 388 kts 354°
2026-05-07 21:49 33.54244 30.93344 30263 ft 402 kts 354°
2026-05-07 21:50 33.59938 30.93127 30394 ft 416 kts 354°
2026-05-07 21:50 33.62812 30.93019 30522 ft 420 kts 354°
2026-05-07 21:50 33.65745 30.92911 30803 ft 421 kts 354°
2026-05-07 21:51 33.68658 30.92804 31286 ft 416 kts 354°
2026-05-07 21:51 33.71522 30.92700 31880 ft 408 kts 354°
2026-05-07 21:51 33.74336 30.92597 32473 ft 401 kts 353°
2026-05-07 21:51 33.77107 30.92494 32936 ft 397 kts 353°
2026-05-07 21:52 33.79859 30.92389 33297 ft 395 kts 353°
2026-05-07 21:52 33.82603 30.92284 33655 ft 393 kts 353°
2026-05-07 21:52 33.85322 30.92180 34094 ft 389 kts 352°
2026-05-07 21:52 33.88010 30.92079 34480 ft 385 kts 352°
2026-05-07 21:53 33.90686 30.91977 34726 ft 384 kts 352°
2026-05-07 21:53 33.93364 30.91874 34898 ft 385 kts 352°
2026-05-07 21:53 33.96048 30.91769 35127 ft 385 kts 352°
2026-05-07 21:53 33.98721 30.91635 35328 ft 385 kts 352°
2026-05-07 21:54 34.01398 30.91483 35496 ft 385 kts 352°
2026-05-07 21:54 34.04078 30.91328 35671 ft 386 kts 352°
2026-05-07 21:54 34.06724 30.91176 35893 ft 385 kts 352°
2026-05-07 21:54 34.09405 30.91025 36117 ft 384 kts 352°
2026-05-07 21:55 34.14775 30.90726 36151 ft 388 kts 352°
2026-05-07 21:55 34.20163 30.90429 36151 ft 387 kts 352°
2026-05-07 21:56 34.25540 30.90134 36141 ft 386 kts 353°
2026-05-07 21:56 34.30904 30.89861 36146 ft 385 kts 353°
2026-05-07 21:57 34.36265 30.89593 36145 ft 386 kts 353°
2026-05-07 21:57 34.41644 30.89321 36148 ft 387 kts 353°
2026-05-07 21:58 34.47000 30.89048 36146 ft 388 kts 353°
2026-05-07 21:58 34.52415 30.88773 36148 ft 390 kts 353°
2026-05-07 21:59 34.57871 30.88495 36149 ft 392 kts 353°
2026-05-07 21:59 34.63353 30.88226 36152 ft 395 kts 354°
2026-05-07 22:00 34.68833 30.88048 36141 ft 397 kts 354°
2026-05-07 22:00 34.74357 30.87887 36144 ft 397 kts 354°
2026-05-07 22:01 34.79888 30.87718 36146 ft 397 kts 354°
2026-05-07 22:01 34.85418 30.87542 36147 ft 398 kts 354°
2026-05-07 22:02 34.90963 30.87364 36147 ft 399 kts 354°
2026-05-07 22:02 34.96518 30.87185 36144 ft 399 kts 354°
2026-05-07 22:03 35.02078 30.87007 36148 ft 400 kts 354°
2026-05-07 22:03 35.07622 30.86828 36145 ft 401 kts 354°
2026-05-07 22:04 35.13202 30.86648 36146 ft 402 kts 354°
2026-05-07 22:04 35.18800 30.86467 36144 ft 403 kts 354°
2026-05-07 22:05 35.24404 30.86277 36144 ft 403 kts 354°
2026-05-07 22:05 35.30024 30.86084 36143 ft 404 kts 354°
2026-05-07 22:06 35.35648 30.85892 36145 ft 404 kts 354°
2026-05-07 22:06 35.41282 30.85699 36141 ft 405 kts 354°
2026-05-07 22:07 35.46920 30.85507 36145 ft 405 kts 354°
2026-05-07 22:07 35.52557 30.85314 36133 ft 405 kts 354°
2026-05-07 22:08 35.58158 30.85122 36135 ft 405 kts 354°
2026-05-07 22:08 35.63807 30.84905 36138 ft 405 kts 353°
2026-05-07 22:09 35.69435 30.84558 36137 ft 404 kts 353°
2026-05-07 22:09 35.75062 30.84192 36134 ft 404 kts 353°
2026-05-07 22:10 35.80683 30.83840 36134 ft 404 kts 353°
2026-05-07 22:10 35.86263 30.83497 36132 ft 404 kts 353°
2026-05-07 22:11 35.91886 30.83152 36134 ft 404 kts 353°
2026-05-07 22:11 35.97516 30.82806 36130 ft 404 kts 353°
2026-05-07 22:12 36.03142 30.82459 36123 ft 405 kts 353°
2026-05-07 22:12 36.08779 30.82207 36138 ft 405 kts 354°
2026-05-07 22:13 36.14419 30.82052 36133 ft 406 kts 354°
2026-05-07 22:13 36.20069 30.81888 36133 ft 406 kts 354°
2026-05-07 22:14 36.25683 30.81711 36139 ft 406 kts 354°
2026-05-07 22:14 36.31339 30.81530 36129 ft 407 kts 354°
2026-05-07 22:15 36.37006 30.81347 36140 ft 407 kts 354°
2026-05-07 22:15 36.42683 30.81164 36137 ft 408 kts 354°
2026-05-07 22:16 36.48361 30.80964 36140 ft 408 kts 354°
2026-05-07 22:16 36.54034 30.80760 36138 ft 408 kts 354°
2026-05-07 22:17 36.59719 30.80557 36146 ft 408 kts 354°
2026-05-07 22:17 36.65367 30.80355 36144 ft 409 kts 354°
2026-05-07 22:18 36.73894 30.80051 36154 ft 409 kts 354°
2026-05-07 22:19 36.79580 30.79848 36162 ft 408 kts 354°
2026-05-07 22:19 36.85266 30.79645 36161 ft 408 kts 354°
2026-05-07 22:20 36.90941 30.79431 35818 ft 405 kts 353°
2026-05-07 22:20 36.93716 30.79014 35570 ft 399 kts 345°
2026-05-07 22:20 36.96381 30.78254 35346 ft 397 kts 344°
2026-05-07 22:20 36.99079 30.77449 35105 ft 399 kts 343°
2026-05-07 22:21 37.01783 30.76634 34877 ft 401 kts 343°
2026-05-07 22:21 37.04499 30.75818 34642 ft 402 kts 344°
2026-05-07 22:21 37.07224 30.75005 34413 ft 403 kts 344°
2026-05-07 22:21 37.09961 30.74194 34232 ft 405 kts 344°
2026-05-07 22:22 37.12710 30.73384 34203 ft 406 kts 344°
2026-05-07 22:22 37.18196 30.71773 34167 ft 402 kts 344°
2026-05-07 22:23 37.23639 30.70176 34197 ft 402 kts 344°
2026-05-07 22:23 37.29110 30.68566 34202 ft 405 kts 344°
2026-05-07 22:24 37.34601 30.66949 34211 ft 405 kts 344°
2026-05-07 22:24 37.40093 30.65330 34207 ft 405 kts 344°
2026-05-07 22:25 37.45541 30.63721 34231 ft 405 kts 344°
2026-05-07 22:25 37.51037 30.62095 34216 ft 405 kts 344°
2026-05-07 22:26 37.56523 30.60470 34230 ft 404 kts 344°
2026-05-07 22:26 37.61960 30.58857 34226 ft 403 kts 344°
2026-05-07 22:27 37.67415 30.57237 34214 ft 401 kts 344°
2026-05-07 22:27 37.72815 30.55630 34211 ft 400 kts 344°
2026-05-07 22:28 37.78228 30.54016 34220 ft 399 kts 344°
2026-05-07 22:28 37.83633 30.52403 34212 ft 398 kts 344°
2026-05-07 22:29 37.89015 30.50794 34227 ft 397 kts 344°
2026-05-07 22:29 37.94392 30.49184 34217 ft 397 kts 344°
2026-05-07 22:30 37.99736 30.47581 34233 ft 396 kts 344°
2026-05-07 22:30 38.05106 30.45968 34235 ft 397 kts 344°
2026-05-07 22:31 38.10469 30.44356 34240 ft 398 kts 344°
2026-05-07 22:31 38.15004 30.42990 34244 ft 398 kts 344°
2026-05-07 22:32 38.20364 30.41373 34252 ft 398 kts 345°
2026-05-07 22:32 38.25762 30.39743 34253 ft 398 kts 345°
2026-05-07 22:33 38.31149 30.38114 34253 ft 398 kts 345°
2026-05-07 22:33 38.36534 30.36482 34263 ft 398 kts 345°
2026-05-07 22:34 38.41892 30.34856 34259 ft 398 kts 345°
2026-05-07 22:34 38.47284 30.33218 34256 ft 397 kts 345°
2026-05-07 22:35 38.52661 30.31581 34261 ft 396 kts 345°
2026-05-07 22:35 38.58022 30.29947 34258 ft 396 kts 345°
2026-05-07 22:36 38.63348 30.28321 34250 ft 395 kts 345°
2026-05-07 22:36 38.68691 30.26688 34248 ft 394 kts 345°
2026-05-07 22:37 38.74020 30.25056 34248 ft 394 kts 344°
2026-05-07 22:37 38.79349 30.23421 34257 ft 393 kts 344°
2026-05-07 22:38 38.84669 30.21787 34253 ft 392 kts 344°
2026-05-07 22:38 38.89937 30.20167 34254 ft 392 kts 345°
2026-05-07 22:39 38.95247 30.18531 34261 ft 392 kts 345°
2026-05-07 22:39 39.00556 30.16892 34254 ft 393 kts 345°
2026-05-07 22:40 39.05878 30.15247 34250 ft 393 kts 345°
2026-05-07 22:40 39.11202 30.13599 34245 ft 394 kts 345°
2026-05-07 22:41 39.16516 30.11952 34247 ft 394 kts 345°
2026-05-07 22:41 39.21733 30.10332 34249 ft 394 kts 345°
2026-05-07 22:42 39.27034 30.08684 34244 ft 394 kts 345°
2026-05-07 22:42 39.32369 30.07022 34244 ft 394 kts 345°
2026-05-07 22:43 39.37694 30.05360 34246 ft 394 kts 345°
2026-05-07 22:43 39.43032 30.03693 34230 ft 394 kts 345°
2026-05-07 22:44 39.48355 30.02027 34246 ft 393 kts 345°
2026-05-07 22:44 39.53642 30.00370 34236 ft 393 kts 345°
2026-05-07 22:45 39.58947 29.98704 34243 ft 392 kts 345°
2026-05-07 22:45 39.64246 29.97038 34226 ft 391 kts 345°
2026-05-07 22:46 39.69535 29.95373 34225 ft 391 kts 345°
2026-05-07 22:46 39.74817 29.93707 34221 ft 391 kts 345°
2026-05-07 22:47 39.80101 29.92037 34211 ft 390 kts 345°
2026-05-07 22:47 39.85383 29.90366 34215 ft 390 kts 345°
2026-05-07 22:48 39.90634 29.88702 34204 ft 390 kts 345°
2026-05-07 22:48 39.95907 29.87028 34203 ft 390 kts 345°
2026-05-07 22:49 40.01189 29.85349 34197 ft 391 kts 345°
2026-05-07 22:49 40.06425 29.83681 34176 ft 391 kts 345°
2026-05-07 22:50 40.11753 29.81983 34183 ft 391 kts 345°
2026-05-07 22:50 40.17045 29.80292 34164 ft 391 kts 345°
2026-05-07 22:51 40.22336 29.78599 34164 ft 391 kts 345°
2026-05-07 22:51 40.27593 29.76914 34159 ft 392 kts 345°
2026-05-07 22:52 40.32894 29.75213 34167 ft 391 kts 345°
2026-05-07 22:52 40.38177 29.73514 34162 ft 391 kts 345°
2026-05-07 22:53 40.43470 29.71810 34154 ft 391 kts 345°
2026-05-07 22:53 40.48738 29.70111 34150 ft 390 kts 345°
2026-05-07 22:54 40.54016 29.68405 34153 ft 390 kts 345°
2026-05-07 22:54 40.59244 29.66714 34143 ft 389 kts 345°
2026-05-07 22:55 40.64498 29.65010 34156 ft 388 kts 345°
2026-05-07 22:55 40.69751 29.63305 34144 ft 389 kts 345°
2026-05-07 22:56 40.75002 29.61598 34139 ft 388 kts 345°
2026-05-07 22:56 40.80249 29.59889 34133 ft 388 kts 345°
2026-05-07 22:57 40.85488 29.58180 34135 ft 388 kts 345°
2026-05-07 22:57 40.90732 29.56466 34122 ft 388 kts 345°
2026-05-07 22:58 40.95970 29.54752 34139 ft 388 kts 345°
2026-05-07 22:58 41.01212 29.53033 34127 ft 388 kts 345°
2026-05-07 22:59 41.06449 29.51314 34131 ft 388 kts 345°
2026-05-07 22:59 41.11658 29.49601 34130 ft 388 kts 345°
2026-05-07 23:00 41.16890 29.47877 34127 ft 388 kts 345°
2026-05-07 23:00 41.22130 29.46147 34122 ft 388 kts 345°
2026-05-07 23:01 41.27365 29.44417 34121 ft 388 kts 345°
2026-05-07 23:01 41.32612 29.42679 34129 ft 388 kts 345°
2026-05-07 23:02 41.37859 29.40940 34121 ft 389 kts 345°
2026-05-07 23:02 41.43084 29.39204 34135 ft 389 kts 345°
2026-05-07 23:03 41.48350 29.37452 34120 ft 390 kts 345°
2026-05-07 23:03 41.53622 29.35695 34123 ft 391 kts 345°
2026-05-07 23:04 41.58896 29.33934 34124 ft 391 kts 345°
2026-05-07 23:04 41.64191 29.32163 34121 ft 392 kts 345°
2026-05-07 23:05 41.69493 29.30387 34116 ft 393 kts 345°
2026-05-07 23:05 41.74810 29.28602 34120 ft 394 kts 345°
2026-05-07 23:06 41.80132 29.26813 34117 ft 395 kts 345°
2026-05-07 23:06 41.85462 29.25019 34124 ft 395 kts 345°
2026-05-07 23:07 41.90804 29.23217 34121 ft 396 kts 345°
2026-05-07 23:07 41.96123 29.21419 34124 ft 396 kts 345°
2026-05-07 23:08 42.01486 29.19604 34122 ft 397 kts 345°
2026-05-07 23:08 42.06845 29.17787 34130 ft 397 kts 345°
2026-05-07 23:09 42.12203 29.15967 34119 ft 397 kts 345°
2026-05-07 23:09 42.17323 29.13236 34132 ft 397 kts 331°
2026-05-07 23:10 42.21724 29.08806 34127 ft 399 kts 320°
2026-05-07 23:10 42.25821 29.03742 34124 ft 399 kts 319°
2026-05-07 23:11 42.29908 28.98660 34121 ft 399 kts 319°
2026-05-07 23:11 42.34013 28.93586 34122 ft 400 kts 319°
2026-05-07 23:12 42.38121 28.88523 34119 ft 400 kts 319°
2026-05-07 23:12 42.42232 28.83453 34125 ft 400 kts 319°
2026-05-07 23:13 42.46322 28.78400 34119 ft 400 kts 319°
2026-05-07 23:13 42.50435 28.73309 34125 ft 400 kts 319°
2026-05-07 23:14 42.54546 28.68211 34113 ft 400 kts 319°
2026-05-07 23:14 42.58652 28.63108 34121 ft 400 kts 319°
2026-05-07 23:15 42.62733 28.58028 34122 ft 400 kts 319°
2026-05-07 23:15 42.66841 28.52905 34118 ft 400 kts 319°
2026-05-07 23:16 42.70939 28.47784 34119 ft 400 kts 319°
2026-05-07 23:16 42.75041 28.42648 34120 ft 401 kts 319°
2026-05-07 23:17 42.78448 28.38376 34123 ft 401 kts 318°
2026-05-07 23:17 42.82547 28.33226 34126 ft 401 kts 318°
2026-05-07 23:18 42.86651 28.28060 34115 ft 401 kts 318°
2026-05-07 23:18 42.90755 28.22885 34120 ft 402 kts 318°
2026-05-07 23:19 42.94860 28.17698 34124 ft 402 kts 318°
2026-05-07 23:19 42.98965 28.12497 34119 ft 403 kts 318°
2026-05-07 23:20 43.03046 28.07314 34106 ft 403 kts 317°
2026-05-07 23:20 43.07157 28.02083 34113 ft 404 kts 317°
2026-05-07 23:21 43.11272 27.96838 34104 ft 404 kts 317°
2026-05-07 23:21 43.15390 27.91578 34103 ft 405 kts 317°
2026-05-07 23:22 43.19515 27.86300 34106 ft 406 kts 317°
2026-05-07 23:22 43.23657 27.81016 34101 ft 406 kts 318°
2026-05-07 23:23 43.27943 27.76018 34103 ft 407 kts 320°
2026-05-07 23:23 43.32274 27.71107 34108 ft 407 kts 320°
2026-05-07 23:24 43.36633 27.66119 34098 ft 408 kts 320°
2026-05-07 23:24 43.40985 27.61099 34095 ft 408 kts 320°
2026-05-07 23:25 43.45334 27.56062 34088 ft 408 kts 320°
2026-05-07 23:25 43.49679 27.51020 34081 ft 408 kts 320°
2026-05-07 23:26 43.54023 27.45969 34085 ft 408 kts 320°
2026-05-07 23:26 43.56194 27.43442 33964 ft 409 kts 318°
2026-05-07 23:26 43.58383 27.40896 34010 ft 414 kts 317°
2026-05-07 23:27 43.65074 27.33073 34085 ft 430 kts 317°
2026-05-07 23:27 43.69663 27.27714 34080 ft 433 kts 317°
2026-05-07 23:28 43.74295 27.22349 34063 ft 431 kts 317°
2026-05-07 23:28 43.78842 27.17078 34065 ft 425 kts 317°
2026-05-07 23:29 43.83348 27.11835 34070 ft 427 kts 317°
2026-05-07 23:29 43.87893 27.06530 34066 ft 428 kts 317°
2026-05-07 23:30 43.92461 27.01190 34060 ft 430 kts 317°
2026-05-07 23:30 43.97041 26.95823 34050 ft 431 kts 317°
2026-05-07 23:31 44.01625 26.90441 34054 ft 432 kts 317°
2026-05-07 23:31 44.06219 26.85038 34052 ft 433 kts 317°
2026-05-07 23:32 44.10856 26.79687 34049 ft 433 kts 319°
2026-05-07 23:32 44.15626 26.74544 34047 ft 433 kts 320°
2026-05-07 23:33 44.20405 26.69428 34049 ft 433 kts 320°
2026-05-07 23:33 44.25170 26.64277 34046 ft 432 kts 319°
2026-05-07 23:34 44.29914 26.59112 34045 ft 432 kts 319°
2026-05-07 23:34 44.34642 26.53943 34047 ft 431 kts 319°
2026-05-07 23:35 44.39338 26.48797 34050 ft 431 kts 319°
2026-05-07 23:35 44.44061 26.43611 34045 ft 431 kts 319°
2026-05-07 23:36 44.48768 26.38433 34046 ft 430 kts 319°
2026-05-07 23:36 44.53470 26.33249 34050 ft 430 kts 319°
2026-05-07 23:37 44.58169 26.28057 34049 ft 429 kts 319°
2026-05-07 23:37 44.62863 26.22862 34051 ft 429 kts 319°
2026-05-07 23:38 44.67515 26.17700 34049 ft 429 kts 319°
2026-05-07 23:38 44.72182 26.12511 34049 ft 428 kts 319°
2026-05-07 23:39 44.76854 26.07305 34052 ft 428 kts 319°
2026-05-07 23:39 44.81517 26.02100 34049 ft 427 kts 319°
2026-05-07 23:40 44.86173 25.96891 34053 ft 427 kts 319°
2026-05-07 23:40 44.90818 25.91682 34054 ft 426 kts 319°
2026-05-07 23:41 44.95455 25.86471 34057 ft 425 kts 318°
2026-05-07 23:41 45.00083 25.81260 34060 ft 425 kts 318°
2026-05-07 23:42 45.04676 25.76077 34062 ft 425 kts 318°
2026-05-07 23:42 45.09296 25.70853 34077 ft 425 kts 318°
2026-05-07 23:43 45.13913 25.65620 34074 ft 425 kts 318°
2026-05-07 23:43 45.18539 25.60366 34074 ft 425 kts 318°
2026-05-07 23:44 45.23163 25.55104 34066 ft 426 kts 318°
2026-05-07 23:44 45.27741 25.49882 34080 ft 425 kts 317°
2026-05-07 23:45 45.32361 25.44602 34074 ft 425 kts 317°
2026-05-07 23:45 45.36967 25.39325 34080 ft 425 kts 317°
2026-05-07 23:46 45.41575 25.34035 34081 ft 425 kts 317°
2026-05-07 23:46 45.46191 25.28726 34085 ft 425 kts 317°
2026-05-07 23:47 45.50790 25.23423 34076 ft 425 kts 317°
2026-05-07 23:47 45.55386 25.18112 34083 ft 426 kts 317°
2026-05-07 23:48 45.59967 25.12807 34093 ft 427 kts 317°
2026-05-07 23:48 45.64584 25.07448 34083 ft 428 kts 317°
2026-05-07 23:49 45.69210 25.02069 34069 ft 428 kts 317°
2026-05-07 23:49 45.73826 24.96690 34072 ft 428 kts 317°
2026-05-07 23:50 45.78437 24.91304 34083 ft 427 kts 317°
2026-05-07 23:50 45.83002 24.85960 34066 ft 426 kts 316°
2026-05-07 23:51 45.87595 24.80570 34064 ft 426 kts 316°
2026-05-07 23:51 45.92177 24.75183 34082 ft 426 kts 316°
2026-05-07 23:52 45.96761 24.69781 34071 ft 426 kts 316°
2026-05-07 23:52 46.01341 24.64371 34069 ft 426 kts 316°
2026-05-07 23:53 46.05922 24.58949 34080 ft 426 kts 316°
2026-05-07 23:53 46.10500 24.53517 34061 ft 426 kts 316°
2026-05-07 23:54 46.15055 24.48101 34070 ft 427 kts 316°
2026-05-07 23:54 46.19646 24.42630 34062 ft 428 kts 316°
2026-05-07 23:55 46.24240 24.37144 34052 ft 428 kts 316°
2026-05-07 23:55 46.28832 24.31647 34058 ft 429 kts 316°
2026-05-07 23:56 46.33409 24.26157 34054 ft 430 kts 316°
2026-05-07 23:56 46.37985 24.20655 34052 ft 430 kts 316°
2026-05-07 23:57 46.42595 24.15099 34059 ft 430 kts 316°
2026-05-07 23:57 46.47153 24.09595 34054 ft 430 kts 316°
2026-05-07 23:58 46.51780 24.03994 34059 ft 429 kts 315°
2026-05-07 23:58 46.56331 23.98472 34060 ft 428 kts 315°
2026-05-07 23:59 46.60910 23.92903 34059 ft 428 kts 315°
2026-05-07 23:59 46.65472 23.87342 34051 ft 428 kts 315°
2026-05-08 00:00 46.70034 23.81770 34043 ft 427 kts 315°
2026-05-08 00:00 46.73815 23.77141 34052 ft 427 kts 315°
2026-05-08 00:01 46.78356 23.71570 34054 ft 427 kts 315°
2026-05-08 00:01 46.82899 23.65984 34045 ft 426 kts 315°
2026-05-08 00:02 46.88167 23.59491 34051 ft 426 kts 315°
2026-05-08 00:02 46.91957 23.54808 34056 ft 426 kts 315°
2026-05-08 00:03 46.96454 23.49241 34051 ft 426 kts 315°
2026-05-08 00:03 47.00987 23.43615 34063 ft 427 kts 315°
2026-05-08 00:04 47.05521 23.37977 34063 ft 427 kts 315°
2026-05-08 00:04 47.10053 23.32326 34066 ft 428 kts 315°
2026-05-08 00:05 47.14596 23.26650 34051 ft 429 kts 315°
2026-05-08 00:05 47.19134 23.20966 34058 ft 429 kts 315°
2026-05-08 00:06 47.23683 23.15255 34050 ft 430 kts 315°
2026-05-08 00:06 47.28235 23.09528 34054 ft 430 kts 315°
2026-05-08 00:07 47.32763 23.03817 34049 ft 431 kts 315°
2026-05-08 00:07 47.37322 22.98054 34047 ft 432 kts 315°
2026-05-08 00:08 47.41880 22.92278 34043 ft 432 kts 315°
2026-05-08 00:08 47.46447 22.86477 34040 ft 432 kts 314°
2026-05-08 00:09 47.51006 22.80672 34046 ft 432 kts 314°
2026-05-08 00:09 47.55563 22.74856 34049 ft 432 kts 314°
2026-05-08 00:10 47.60119 22.69027 34047 ft 432 kts 314°
2026-05-08 00:10 47.64661 22.63201 34044 ft 432 kts 314°
2026-05-08 00:11 47.69205 22.57360 34045 ft 432 kts 314°
2026-05-08 00:11 47.73718 22.51544 34040 ft 432 kts 314°
2026-05-08 00:12 47.78260 22.45680 34035 ft 432 kts 314°
2026-05-08 00:12 47.83243 22.40545 34040 ft 438 kts 324°
2026-05-08 00:13 47.88501 22.35927 34027 ft 439 kts 324°
2026-05-08 00:13 47.93746 22.31301 34030 ft 439 kts 324°
2026-05-08 00:14 47.98986 22.26602 34031 ft 439 kts 324°
2026-05-08 00:14 48.04227 22.21864 34029 ft 440 kts 323°
2026-05-08 00:15 48.09458 22.17120 34027 ft 440 kts 323°
2026-05-08 00:15 48.14702 22.12354 34027 ft 440 kts 323°
2026-05-08 00:16 48.19908 22.07613 34024 ft 441 kts 323°
2026-05-08 00:16 48.25147 22.02831 34022 ft 441 kts 323°
2026-05-08 00:17 48.30402 21.98022 34016 ft 441 kts 323°
2026-05-08 00:17 48.35651 21.93207 34014 ft 442 kts 323°
2026-05-08 00:18 48.40891 21.88387 34009 ft 442 kts 323°
2026-05-08 00:18 48.46106 21.83573 34012 ft 442 kts 323°
2026-05-08 00:19 48.51345 21.78724 34015 ft 442 kts 323°
2026-05-08 00:19 48.56589 21.73859 34011 ft 442 kts 323°
2026-05-08 00:20 48.61832 21.68984 34014 ft 442 kts 323°
2026-05-08 00:20 48.67081 21.64090 34021 ft 442 kts 323°
2026-05-08 00:21 48.72298 21.59215 34014 ft 443 kts 322°
2026-05-08 00:21 48.77494 21.54346 34025 ft 442 kts 322°
2026-05-08 00:22 48.82706 21.49458 34020 ft 432 kts 322°
2026-05-08 00:22 48.87811 21.44650 34017 ft 431 kts 322°
2026-05-08 00:23 48.92885 21.39863 33997 ft 419 kts 322°
2026-05-08 00:23 48.95328 21.37562 33984 ft 406 kts 322°
2026-05-08 00:23 48.97692 21.35333 33999 ft 393 kts 321°
2026-05-08 00:24 48.99953 21.33195 33985 ft 381 kts 321°
2026-05-08 00:24 49.02171 21.31093 33993 ft 371 kts 321°
2026-05-08 00:24 49.06598 21.26864 34036 ft 383 kts 321°
2026-05-08 00:25 49.11208 21.22452 34029 ft 397 kts 321°
2026-05-08 00:25 49.15900 21.17981 34003 ft 394 kts 321°
2026-05-08 00:26 49.20511 21.13581 34016 ft 389 kts 321°
2026-05-08 00:26 49.25101 21.09176 34017 ft 394 kts 321°
2026-05-08 00:27 49.29765 21.04694 34016 ft 397 kts 321°
2026-05-08 00:27 49.34456 21.00174 34008 ft 397 kts 321°
2026-05-08 00:28 49.39106 20.95703 34003 ft 391 kts 321°
2026-05-08 00:28 49.43739 20.91255 34017 ft 396 kts 321°
2026-05-08 00:29 49.48442 20.86722 34027 ft 401 kts 321°
2026-05-08 00:29 49.53156 20.82163 34020 ft 404 kts 321°
2026-05-08 00:30 49.57869 20.77611 33996 ft 395 kts 321°
2026-05-08 00:30 49.62525 20.73126 34018 ft 396 kts 321°
2026-05-08 00:31 49.67216 20.68594 34020 ft 399 kts 321°
2026-05-08 00:31 49.71937 20.64018 34012 ft 401 kts 321°
2026-05-08 00:32 49.76677 20.59418 34013 ft 402 kts 321°
2026-05-08 00:32 49.81419 20.54812 34022 ft 403 kts 321°
2026-05-08 00:33 49.86158 20.50207 34012 ft 402 kts 321°
2026-05-08 00:33 49.90875 20.45618 34009 ft 402 kts 321°
2026-05-08 00:34 49.95614 20.41005 34015 ft 401 kts 321°
2026-05-08 00:34 50.00344 20.36397 34016 ft 401 kts 321°
2026-05-08 00:35 50.05071 20.31793 34022 ft 401 kts 321°
2026-05-08 00:35 50.09801 20.27185 34027 ft 401 kts 321°
2026-05-08 00:36 50.14512 20.22593 34031 ft 403 kts 321°
2026-05-08 00:36 50.19267 20.17940 34034 ft 404 kts 321°
2026-05-08 00:37 50.24039 20.13253 34025 ft 406 kts 321°
2026-05-08 00:38 50.31199 20.06185 34030 ft 408 kts 321°
2026-05-08 00:38 50.36019 20.01410 34027 ft 409 kts 321°
2026-05-08 00:39 50.40828 19.96635 34028 ft 409 kts 321°
2026-05-08 00:39 50.45633 19.91854 34020 ft 409 kts 321°
2026-05-08 00:40 50.50397 19.87095 34034 ft 408 kts 321°
2026-05-08 00:40 50.55192 19.82286 34027 ft 408 kts 321°
2026-05-08 00:41 50.59979 19.77469 34036 ft 407 kts 321°
2026-05-08 00:41 50.64748 19.72653 34037 ft 407 kts 321°
2026-05-08 00:42 50.69509 19.67830 34039 ft 407 kts 321°
2026-05-08 00:42 50.74255 19.63009 34046 ft 408 kts 321°
2026-05-08 00:43 50.79026 19.58144 34047 ft 408 kts 321°
2026-05-08 00:43 50.83801 19.53250 34056 ft 409 kts 321°
2026-05-08 00:44 50.88553 19.48357 34057 ft 410 kts 321°
2026-05-08 00:44 50.93322 19.43424 34048 ft 410 kts 321°
2026-05-08 00:45 50.98084 19.38476 34054 ft 409 kts 321°
2026-05-08 00:45 51.02843 19.33507 34056 ft 409 kts 321°
2026-05-08 00:46 51.07589 19.28534 34054 ft 408 kts 321°
2026-05-08 00:46 51.12320 19.23556 34067 ft 407 kts 321°
2026-05-08 00:47 51.17010 19.18609 34057 ft 407 kts 321°
2026-05-08 00:47 51.21724 19.13625 34070 ft 406 kts 321°
2026-05-08 00:48 51.26425 19.08642 34068 ft 405 kts 321°
2026-05-08 00:48 51.31119 19.03650 34070 ft 404 kts 321°
2026-05-08 00:49 51.35010 18.99501 34062 ft 404 kts 321°
2026-05-08 00:49 51.39687 18.94502 34073 ft 404 kts 321°
2026-05-08 00:50 51.44372 18.89480 34075 ft 404 kts 321°
2026-05-08 00:50 51.49050 18.84460 34076 ft 404 kts 321°
2026-05-08 00:51 51.53726 18.79440 34076 ft 404 kts 321°
2026-05-08 00:51 51.58390 18.74429 34077 ft 404 kts 321°
2026-05-08 00:52 51.63038 18.69433 34079 ft 403 kts 321°
2026-05-08 00:52 51.67711 18.64406 34085 ft 402 kts 321°
2026-05-08 00:53 51.72367 18.59401 34084 ft 401 kts 321°
2026-05-08 00:53 51.77006 18.54397 34084 ft 400 kts 321°
2026-05-08 00:54 51.81638 18.49387 34090 ft 400 kts 321°
2026-05-08 00:54 51.86254 18.44381 34091 ft 398 kts 321°
2026-05-08 00:55 51.90817 18.39427 34099 ft 398 kts 321°
2026-05-08 00:55 51.95413 18.34425 34094 ft 397 kts 321°
2026-05-08 00:56 51.99987 18.29441 34095 ft 396 kts 321°
2026-05-08 00:56 52.04564 18.24453 34099 ft 395 kts 321°
2026-05-08 00:57 52.09098 18.19498 34104 ft 394 kts 321°
2026-05-08 00:57 52.13631 18.14518 34106 ft 393 kts 321°
2026-05-08 00:58 52.18142 18.09542 34107 ft 393 kts 321°
2026-05-08 00:58 52.22691 18.04501 34112 ft 393 kts 321°
2026-05-08 00:59 52.27176 17.99510 34112 ft 393 kts 321°
2026-05-08 00:59 52.31682 17.94474 34113 ft 392 kts 321°
2026-05-08 01:00 52.36158 17.89451 34112 ft 392 kts 321°
2026-05-08 01:00 52.40657 17.84388 34119 ft 392 kts 321°
2026-05-08 01:01 52.45145 17.79316 34121 ft 392 kts 321°
2026-05-08 01:01 52.49618 17.74234 34122 ft 391 kts 321°
2026-05-08 01:02 52.54066 17.69161 34123 ft 391 kts 321°
2026-05-08 01:02 52.58520 17.64060 34125 ft 390 kts 321°
2026-05-08 01:03 52.62943 17.58981 34124 ft 389 kts 321°
2026-05-08 01:03 52.67413 17.53835 34131 ft 389 kts 321°
2026-05-08 01:04 52.71810 17.48759 34130 ft 388 kts 321°
2026-05-08 01:04 52.76213 17.43643 34130 ft 387 kts 321°
2026-05-08 01:05 52.80621 17.38487 34130 ft 387 kts 321°
2026-05-08 01:05 52.85012 17.33318 34132 ft 387 kts 321°
2026-05-08 01:06 52.89401 17.28123 34133 ft 387 kts 321°
2026-05-08 01:06 52.93739 17.22958 34133 ft 387 kts 321°
2026-05-08 01:07 52.98066 17.17782 34133 ft 387 kts 321°
2026-05-08 01:07 53.02434 17.12535 34140 ft 387 kts 321°
2026-05-08 01:08 53.06792 17.07275 34141 ft 387 kts 321°
2026-05-08 01:08 53.11145 17.02001 34146 ft 387 kts 321°
2026-05-08 01:09 53.15492 16.96701 34143 ft 387 kts 321°
2026-05-08 01:09 53.19810 16.91414 34143 ft 387 kts 321°
2026-05-08 01:10 53.24137 16.86086 34148 ft 386 kts 321°
2026-05-08 01:10 53.28449 16.80749 34152 ft 385 kts 321°
2026-05-08 01:11 53.32747 16.75407 34155 ft 384 kts 321°
2026-05-08 01:11 53.37029 16.70058 34156 ft 383 kts 321°
2026-05-08 01:12 53.41298 16.64703 34157 ft 383 kts 321°
2026-05-08 01:12 53.45508 16.59401 34158 ft 382 kts 321°
2026-05-08 01:13 53.49776 16.53996 34160 ft 382 kts 321°
2026-05-08 01:13 53.54019 16.48594 34164 ft 382 kts 321°
2026-05-08 01:14 53.58249 16.43180 34163 ft 382 kts 321°
2026-05-08 01:14 53.62479 16.37741 34167 ft 382 kts 321°
2026-05-08 01:15 53.66679 16.32322 34166 ft 382 kts 321°
2026-05-08 01:15 53.70894 16.26849 34167 ft 382 kts 321°
2026-05-08 01:16 53.75079 16.21385 34169 ft 382 kts 321°
2026-05-08 01:16 53.79305 16.15842 34169 ft 381 kts 321°
2026-05-08 01:17 53.83487 16.10327 34170 ft 381 kts 321°
2026-05-08 01:17 53.87636 16.04837 34177 ft 380 kts 321°
2026-05-08 01:18 53.91796 15.99308 34178 ft 379 kts 321°
2026-05-08 01:18 53.95940 15.93783 34172 ft 379 kts 321°
2026-05-08 01:19 54.00087 15.88240 34186 ft 378 kts 321°
2026-05-08 01:19 54.04227 15.82683 34189 ft 378 kts 321°
2026-05-08 01:20 54.08349 15.77119 34175 ft 378 kts 321°
2026-05-08 01:20 54.12438 15.71575 34188 ft 378 kts 321°
2026-05-08 01:21 54.16543 15.65978 34180 ft 378 kts 321°
2026-05-08 01:21 54.20645 15.60353 34178 ft 377 kts 321°
2026-05-08 01:22 54.24731 15.54712 34193 ft 377 kts 321°
2026-05-08 01:22 54.28809 15.49058 34191 ft 377 kts 321°
2026-05-08 01:23 54.32859 15.43427 34191 ft 377 kts 321°
2026-05-08 01:23 54.36921 15.37748 34193 ft 377 kts 321°
2026-05-08 01:24 54.40977 15.32048 34189 ft 377 kts 321°
2026-05-08 01:24 54.45004 15.26365 34199 ft 377 kts 321°
2026-05-08 01:25 54.49049 15.20615 34203 ft 377 kts 321°
2026-05-08 01:25 54.53095 15.14841 34188 ft 377 kts 321°
2026-05-08 01:26 54.57131 15.09053 34205 ft 378 kts 321°
2026-05-08 01:26 54.61155 15.03268 34193 ft 378 kts 321°
2026-05-08 01:27 54.65203 14.97444 34199 ft 378 kts 321°
2026-05-08 01:27 54.69254 14.91599 34207 ft 378 kts 321°
2026-05-08 01:28 54.73291 14.85764 34205 ft 378 kts 321°
2026-05-08 01:28 54.77321 14.79915 34203 ft 378 kts 321°
2026-05-08 01:29 54.81334 14.74058 34208 ft 377 kts 321°
2026-05-08 01:29 54.85309 14.68222 34211 ft 377 kts 321°
2026-05-08 01:30 54.89306 14.62326 34215 ft 376 kts 321°
2026-05-08 01:30 54.93293 14.56422 34210 ft 376 kts 321°
2026-05-08 01:31 54.97266 14.50500 34213 ft 376 kts 321°
2026-05-08 01:31 55.01234 14.44550 34211 ft 376 kts 321°
2026-05-08 01:32 55.05172 14.38604 34212 ft 377 kts 321°
2026-05-08 01:32 55.09131 14.32585 34212 ft 378 kts 321°
2026-05-08 01:33 55.13095 14.26516 34211 ft 378 kts 321°
2026-05-08 01:33 55.17021 14.20457 34209 ft 379 kts 321°
2026-05-08 01:34 55.20968 14.14316 34209 ft 379 kts 321°
2026-05-08 01:34 55.24913 14.08164 34208 ft 380 kts 321°
2026-05-08 01:35 55.28829 14.02043 34214 ft 380 kts 321°
2026-05-08 01:35 55.32779 13.95854 34212 ft 380 kts 321°
2026-05-08 01:36 55.36726 13.89655 34209 ft 380 kts 321°
2026-05-08 01:36 55.40667 13.83451 34205 ft 380 kts 321°
2026-05-08 01:37 55.44609 13.77233 34200 ft 380 kts 321°
2026-05-08 01:37 55.48547 13.71010 34195 ft 380 kts 321°
2026-05-08 01:38 55.52406 13.64904 34194 ft 380 kts 321°
2026-05-08 01:38 55.56354 13.58656 34190 ft 380 kts 321°
2026-05-08 01:39 55.59639 13.53466 34185 ft 381 kts 321°
2026-05-08 01:39 55.63596 13.47227 34184 ft 381 kts 321°
2026-05-08 01:40 55.67554 13.40997 34195 ft 381 kts 321°
2026-05-08 01:40 55.72168 13.33754 34196 ft 381 kts 321°
2026-05-08 01:41 55.75493 13.28543 34199 ft 380 kts 321°
2026-05-08 01:41 55.79445 13.22367 34205 ft 380 kts 321°
2026-05-08 01:42 55.83419 13.16172 34213 ft 380 kts 321°
2026-05-08 01:42 55.87396 13.09990 34213 ft 379 kts 321°
2026-05-08 01:43 55.91379 13.03810 34207 ft 379 kts 321°
2026-05-08 01:43 55.95365 12.97637 34216 ft 379 kts 321°
2026-05-08 01:44 55.99330 12.91509 34215 ft 379 kts 321°
2026-05-08 01:44 56.03318 12.85354 34219 ft 380 kts 321°
2026-05-08 01:45 56.07329 12.79176 34217 ft 380 kts 321°
2026-05-08 01:45 56.11346 12.72996 34213 ft 380 kts 321°
2026-05-08 01:46 56.15363 12.66823 34205 ft 380 kts 321°
2026-05-08 01:46 56.19363 12.60688 34212 ft 380 kts 321°
2026-05-08 01:47 56.23391 12.54513 34214 ft 380 kts 321°
2026-05-08 01:47 56.27423 12.48337 34212 ft 380 kts 321°
2026-05-08 01:48 56.33466 12.39095 34207 ft 380 kts 321°
2026-05-08 01:48 56.37505 12.32934 34207 ft 380 kts 321°
2026-05-08 01:49 56.41544 12.26775 34209 ft 379 kts 321°
2026-05-08 01:49 56.45550 12.20664 34210 ft 379 kts 321°
2026-05-08 01:50 56.49589 12.14509 34208 ft 379 kts 321°
2026-05-08 01:50 56.53635 12.08361 34210 ft 379 kts 321°
2026-05-08 01:51 56.57683 12.02216 34209 ft 379 kts 321°
2026-05-08 01:51 56.61739 11.96069 34210 ft 379 kts 321°
2026-05-08 01:52 56.65781 11.89958 34210 ft 379 kts 321°
2026-05-08 01:52 56.69844 11.83829 34205 ft 380 kts 321°
2026-05-08 01:53 56.73922 11.77692 34213 ft 380 kts 321°
2026-05-08 01:53 56.77980 11.71598 34206 ft 380 kts 321°
2026-05-08 01:54 56.82063 11.65476 34209 ft 380 kts 321°
2026-05-08 01:54 56.86156 11.59353 34210 ft 380 kts 321°
2026-05-08 01:55 56.90249 11.53244 34212 ft 380 kts 321°
2026-05-08 01:55 56.94349 11.47135 34211 ft 380 kts 321°
2026-05-08 01:56 56.98454 11.41028 34212 ft 380 kts 321°
2026-05-08 01:56 57.02568 11.34919 34214 ft 380 kts 321°
2026-05-08 01:57 57.06654 11.28864 34213 ft 380 kts 321°
2026-05-08 01:57 57.10767 11.22778 34207 ft 380 kts 321°
2026-05-08 01:58 57.14888 11.16688 34215 ft 380 kts 321°
2026-05-08 01:58 57.19012 11.10606 34213 ft 379 kts 321°
2026-05-08 01:59 57.23137 11.04533 34215 ft 379 kts 321°
2026-05-08 01:59 57.27258 10.98477 34205 ft 379 kts 321°
2026-05-08 02:00 57.31385 10.92424 34205 ft 378 kts 321°
2026-05-08 02:00 57.35517 10.86376 34213 ft 378 kts 321°
2026-05-08 02:01 57.39614 10.80389 34218 ft 378 kts 321°
2026-05-08 02:01 57.43755 10.74354 34208 ft 378 kts 321°
2026-05-08 02:02 57.47903 10.68328 34207 ft 378 kts 321°
2026-05-08 02:02 57.52020 10.62357 34208 ft 378 kts 321°
2026-05-08 02:03 57.56176 10.56345 34208 ft 378 kts 321°
2026-05-08 02:03 57.60334 10.50342 34213 ft 378 kts 321°
2026-05-08 02:04 57.64497 10.44347 34210 ft 378 kts 321°
2026-05-08 02:04 57.68662 10.38360 34207 ft 378 kts 321°
2026-05-08 02:05 57.72830 10.32371 34206 ft 378 kts 321°
2026-05-08 02:05 57.77008 10.26384 34204 ft 378 kts 321°
2026-05-08 02:06 57.81192 10.20410 34206 ft 378 kts 321°
2026-05-08 02:06 57.85364 10.14479 34199 ft 378 kts 321°
2026-05-08 02:07 57.89568 10.08516 34205 ft 378 kts 321°
2026-05-08 02:07 57.93773 10.02569 34201 ft 378 kts 321°
2026-05-08 02:08 57.97994 9.96624 34203 ft 378 kts 321°
2026-05-08 02:08 58.02187 9.90731 34200 ft 378 kts 321°
2026-05-08 02:09 58.06412 9.84812 34200 ft 377 kts 321°
2026-05-08 02:09 58.10632 9.78904 34201 ft 377 kts 321°
2026-05-08 02:10 58.14854 9.73006 34200 ft 377 kts 321°
2026-05-08 02:10 58.19078 9.67116 34199 ft 377 kts 321°
2026-05-08 02:11 58.23290 9.61267 34200 ft 377 kts 321°
2026-05-08 02:11 58.27527 9.55390 34198 ft 377 kts 321°
2026-05-08 02:12 58.31768 9.49518 34201 ft 377 kts 321°
2026-05-08 02:12 58.36011 9.43664 34200 ft 377 kts 321°
2026-05-08 02:13 58.40267 9.37816 34200 ft 377 kts 321°
2026-05-08 02:13 58.44525 9.31977 34190 ft 377 kts 321°
2026-05-08 02:14 58.48762 9.26181 34200 ft 376 kts 321°
2026-05-08 02:14 58.53025 9.20364 34206 ft 376 kts 321°
2026-05-08 02:15 58.57292 9.14557 34192 ft 376 kts 321°
2026-05-08 02:15 58.61567 9.08756 34204 ft 376 kts 321°
2026-05-08 02:16 58.65832 9.02984 34197 ft 376 kts 321°
2026-05-08 02:16 58.70099 8.97221 34207 ft 376 kts 321°
2026-05-08 02:17 58.74385 8.91449 34202 ft 376 kts 321°
2026-05-08 02:17 58.78640 8.85729 34206 ft 376 kts 321°
2026-05-08 02:18 58.82943 8.79966 34203 ft 375 kts 321°
2026-05-08 02:18 58.87220 8.74246 34207 ft 375 kts 321°
2026-05-08 02:19 58.91514 8.68522 34218 ft 374 kts 321°
2026-05-08 02:19 58.95805 8.62812 34208 ft 374 kts 321°
2026-05-08 02:20 59.00093 8.57117 34210 ft 374 kts 321°
2026-05-08 02:20 59.04364 8.51462 34211 ft 374 kts 321°
2026-05-08 02:21 59.08636 8.45822 34206 ft 373 kts 321°
2026-05-08 02:21 59.12930 8.40156 34212 ft 372 kts 321°
2026-05-08 02:22 59.17221 8.34508 34219 ft 372 kts 321°
2026-05-08 02:22 59.21488 8.28901 34213 ft 373 kts 321°
2026-05-08 02:23 59.25778 8.23277 34215 ft 374 kts 321°
2026-05-08 02:23 59.30110 8.17607 34212 ft 374 kts 321°
2026-05-08 02:24 59.34448 8.11946 34205 ft 375 kts 321°
2026-05-08 02:24 59.38777 8.06314 34209 ft 375 kts 321°
2026-05-08 02:25 59.43135 8.00663 34207 ft 375 kts 321°
2026-05-08 02:25 59.47491 7.95030 34204 ft 374 kts 321°
2026-05-08 02:26 59.51844 7.89419 34210 ft 373 kts 321°
2026-05-08 02:26 59.56194 7.83823 34198 ft 373 kts 321°
2026-05-08 02:27 59.60542 7.78235 34200 ft 373 kts 321°
2026-05-08 02:27 59.64845 7.72730 34197 ft 372 kts 321°
2026-05-08 02:28 59.68464 7.68101 34203 ft 372 kts 321°
2026-05-08 02:28 59.72822 7.62536 34182 ft 372 kts 321°
2026-05-08 02:29 59.77177 7.56985 34194 ft 372 kts 321°
2026-05-08 02:29 59.81510 7.51464 34194 ft 373 kts 321°
2026-05-08 02:30 59.85904 7.45876 34192 ft 372 kts 321°
2026-05-08 02:30 59.90270 7.40331 34196 ft 372 kts 321°
2026-05-08 02:31 59.94594 7.34851 34192 ft 372 kts 321°
2026-05-08 02:31 59.99028 7.29238 34191 ft 372 kts 321°
2026-05-08 02:32 60.03370 7.23751 34184 ft 372 kts 321°
2026-05-08 02:32 60.07754 7.18220 34183 ft 372 kts 321°
2026-05-08 02:33 60.12124 7.12712 34172 ft 373 kts 321°
2026-05-08 02:33 60.16487 7.07216 34170 ft 372 kts 321°
2026-05-08 02:34 60.20840 7.01737 34161 ft 372 kts 321°
2026-05-08 02:34 60.25248 6.96198 34154 ft 372 kts 321°
2026-05-08 02:35 60.29637 6.90687 34155 ft 372 kts 321°
2026-05-08 02:35 60.34002 6.85208 34143 ft 372 kts 321°
2026-05-08 02:36 60.38405 6.79694 34136 ft 372 kts 321°
2026-05-08 02:36 60.42808 6.74193 34129 ft 372 kts 321°
2026-05-08 02:37 60.47207 6.68712 34117 ft 371 kts 321°
2026-05-08 02:37 60.51587 6.63256 34134 ft 371 kts 321°
2026-05-08 02:38 60.55999 6.57764 34126 ft 371 kts 321°
2026-05-08 02:38 60.60385 6.52307 34116 ft 370 kts 321°
2026-05-08 02:39 60.64747 6.46893 34128 ft 369 kts 321°
2026-05-08 02:39 60.69192 6.41382 34108 ft 370 kts 321°
2026-05-08 02:40 60.73551 6.35984 34130 ft 372 kts 321°
2026-05-08 02:40 60.78020 6.30449 34117 ft 374 kts 321°
2026-05-08 02:41 60.82476 6.24944 34114 ft 374 kts 321°
2026-05-08 02:41 60.86940 6.19429 34109 ft 375 kts 321°
2026-05-08 02:42 60.91411 6.13917 34119 ft 375 kts 321°
2026-05-08 02:42 60.95897 6.08396 34104 ft 374 kts 321°
2026-05-08 02:43 61.00358 6.02925 34108 ft 373 kts 321°
2026-05-08 02:43 61.04822 5.97471 34113 ft 372 kts 321°
2026-05-08 02:44 61.09249 5.92076 34110 ft 373 kts 321°
2026-05-08 02:44 61.12718 5.87854 34091 ft 369 kts 321°